EW8359 Weather Reports


Display with metric or nautical units.
time (UTC)temp
F
wind
direction
speed
MPH
gust
MPH
rain 1hr
in
rain 24hr
in
rain mn
in
humidity
%
barometer
mb
20260904100024 62 144 0.0 1.0 0.00 0.07 0.00 91 1007.2
20260904094535 62 144 0.0 2.0 0.00 0.08 0.00 91 1007.2
20260904093020 63 144 0.0 2.0 0.00 0.08 0.00 91 1007.3
20260904091521 63 144 0.0 0.0 0.00 0.08 0.00 91 1007.3
20260904090018 63 144 0.0 2.0 0.00 0.08 0.00 91 1007.4
20260904084518 63 144 1.0 2.0 0.00 0.18 0.00 91 1007.6
20260904083017 63 144 0.0 0.0 0.00 0.18 0.00 91 1007.5
20260904081518 63 144 0.0 1.0 0.00 0.18 0.00 91 1007.4
20260904080016 63 144 0.0 1.0 0.00 0.18 0.00 91 1007.2
20260904074516 63 144 0.0 0.0 0.00 0.18 0.00 91 1007.2
20260904073013 64 145 0.0 2.0 0.00 0.18 0.00 91 1007.6
20260904071516 64 145 0.0 1.0 0.00 0.18 0.00 91 1007.6
20260904070015 64 145 1.0 2.0 0.00 0.18 0.00 91 1007.8
20260904064510 64 145 0.0 3.0 0.00 0.19 0.00 91 1007.8
20260904063012 63 69 0.0 2.0 0.00 0.19 0.00 91 1007.9
20260904061505 63 44 0.0 2.0 0.00 0.19 0.00 91 1008.2
20260904060004 63 86 0.0 1.0 0.00 0.19 0.00 91 1008.4
20260904054502 63 86 0.0 1.0 0.00 0.19 0.00 91 1008.6
20260904053101 63 86 0.0 2.0 0.00 0.19 0.00 91 1008.8
20260904051559 63 86 0.0 1.0 0.00 0.19 0.00 91 1008.8
20260904050059 63 86 0.0 1.0 0.00 0.19 0.00 91 1009.0
20260904044557 63 86 0.0 1.0 0.00 0.19 0.00 91 1009.1
20260904043104 63 86 0.0 2.0 0.00 0.19 0.00 91 1009.0
20260904041553 63 86 0.0 1.0 0.00 0.19 0.00 91 1009.2
20260904040053 63 86 1.0 2.0 0.00 0.19 0.00 91 1009.3
20260904034550 63 86 0.0 1.0 0.00 0.19 0.19 91 1009.8
20260904033049 63 86 0.0 0.0 0.00 0.19 0.19 90 1009.8
20260904031550 63 86 0.0 0.0 0.00 0.19 0.19 90 1009.7
20260904030048 64 86 0.0 1.0 0.00 0.19 0.19 90 1009.7
20260904024558 64 86 0.0 0.0 0.00 0.19 0.19 90 1009.9
20260904023047 64 86 0.0 0.0 0.00 0.19 0.19 90 1010.1
20260904021553 64 86 0.0 1.0 0.00 0.19 0.19 90 1010.2
20260904020046 64 86 0.0 0.0 0.00 0.19 0.19 90 1010.1
20260904014551 64 86 0.0 0.0 0.00 0.19 0.19 90 1010.3
20260904013106 64 86 0.0 1.0 0.00 0.19 0.19 90 1010.5
20260904011544 64 86 0.0 1.0 0.00 0.19 0.19 90 1010.3
20260904010045 64 86 0.0 1.0 0.00 0.19 0.19 90 1010.5
20260904004544 64 86 0.0 1.0 0.00 0.19 0.19 90 1010.4
20260904003044 64 86 0.0 1.0 0.00 0.19 0.19 90 1010.2
20260904001557 64 86 0.0 1.0 0.00 0.19 0.19 90 1010.0
20260904000042 64 86 0.0 0.0 0.00 0.19 0.19 90 1009.9
20260903234542 64 86 0.0 1.0 0.00 0.19 0.19 90 1009.9
20260903233044 64 86 0.0 1.0 0.00 0.19 0.19 90 1009.7
20260903231541 64 86 0.0 0.0 0.00 0.19 0.19 89 1010.1
20260903230038 64 86 0.0 0.0 0.00 0.19 0.19 89 1010.3
20260903224541 64 86 0.0 1.0 0.00 0.19 0.19 89 1010.0
20260903223041 64 86 0.0 1.0 0.00 0.19 0.19 89 1010.1
20260903221536 64 86 0.0 1.0 0.00 0.19 0.19 89 1010.2
20260903220035 64 86 0.0 2.0 0.00 0.19 0.19 89 1010.2
20260903214538 64 86 0.0 1.0 0.00 0.19 0.19 89 1010.3
20260903213047 64 86 0.0 1.0 0.00 0.19 0.19 89 1010.4
20260903211534 64 86 0.0 2.0 0.00 0.19 0.19 89 1010.3
20260903210034 65 86 0.0 1.0 0.00 0.19 0.19 89 1010.3
20260903204533 65 86 0.0 1.0 0.00 0.19 0.19 89 1010.4
20260903203031 65 86 0.0 2.0 0.00 0.19 0.19 89 1010.5
20260903201530 65 86 0.0 2.0 0.00 0.19 0.19 89 1010.5
20260903200030 65 88 0.0 2.0 0.00 0.19 0.19 89 1010.5
20260903194529 65 65 0.0 1.0 0.00 0.19 0.19 89 1010.6
20260903193027 65 65 0.0 2.0 0.00 0.19 0.19 89 1010.7
20260903191536 65 65 0.0 1.0 0.00 0.19 0.19 89 1010.8
20260903190022 65 65 1.0 3.0 0.00 0.19 0.19 89 1011.0
20260903184520 65 202 0.0 1.0 0.00 0.19 0.19 89 1011.2
20260903183027 65 202 0.0 1.0 0.00 0.19 0.19 89 1011.3
20260903181518 64 202 0.0 1.0 0.00 0.19 0.19 89 1011.5
20260903180028 64 188 0.0 2.0 0.00 0.19 0.19 89 1011.5
20260903174523 64 188 0.0 2.0 0.00 0.19 0.19 89 1011.5
20260903173018 65 188 0.0 3.0 0.00 0.19 0.19 89 1011.4
20260903171514 65 324 0.0 1.0 0.00 0.19 0.19 89 1011.4
20260903170015 64 324 1.0 2.0 0.00 0.19 0.19 89 1011.4
20260903164513 64 324 1.0 3.0 0.00 0.19 0.19 90 1011.7
20260903163009 64 234 0.0 2.0 0.00 0.19 0.19 89 1011.8
20260903161509 64 234 0.0 2.0 0.00 0.19 0.19 90 1011.9
20260903160005 64 234 0.0 2.0 0.00 0.19 0.19 90 1012.2
20260903154505 64 232 0.0 2.0 0.00 0.19 0.19 90 1012.3
20260903153002 63 146 0.0 3.0 0.00 0.19 0.19 90 1012.5
20260903151600 63 165 0.0 3.0 0.00 0.19 0.19 90 1012.7
20260903144556 63 181 0.0 2.0 0.01 0.19 0.19 90 1013.0
20260903143056 62 181 0.0 2.0 0.01 0.19 0.19 90 1013.0
20260903141552 62 181 1.0 2.0 0.01 0.19 0.19 90 1013.2
20260903140055 62 181 0.0 2.0 0.00 0.18 0.18 90 1013.2
20260903134611 61 182 0.0 1.0 0.00 0.18 0.18 90 1013.3
20260903133051 61 182 0.0 2.0 0.00 0.18 0.18 90 1013.3
20260903131549 61 182 0.0 2.0 0.01 0.18 0.18 90 1013.3
20260903130049 60 182 0.0 1.0 0.02 0.18 0.18 91 1013.5
20260903124542 60 182 0.0 1.0 0.02 0.18 0.18 90 1013.7
20260903123041 60 182 0.0 2.0 0.03 0.18 0.18 90 1013.9
20260903121550 60 182 0.0 1.0 0.03 0.17 0.17 90 1013.9
20260903120051 60 182 0.0 1.0 0.03 0.16 0.16 90 1014.2
20260903114557 60 182 0.0 2.0 0.04 0.16 0.16 90 1014.3
20260903113039 60 182 0.0 1.0 0.03 0.15 0.15 90 1014.4
20260903111538 59 182 0.0 0.0 0.02 0.14 0.14 90 1013.9
20260903110037 59 182 0.0 0.0 0.01 0.13 0.13 90 1014.2
20260903104537 59 182 0.0 1.0 0.00 0.12 0.12 90 1014.0
20260903103035 59 182 0.0 0.0 0.00 0.12 0.12 90 1013.9
20260903101533 59 182 0.0 0.0 0.01 0.12 0.12 90 1014.1